Home > Weather > Lublin > Past weeks

Flag for Poland Weather for the Past 2 Weeks in Lublin, Poland

Now
36 °F

Fog.


Feels Like: 36 °F
Forecast: 38 / 50 °F
Wind: 1 mph from South

Location: Rzeszow-Jasionka

Current Time: Feb 14, 2016 at 3:23:07 AM

Latest Report: Feb 14, 2016 at 2:30 AM


Visibility: 2 mi

Pressure: 29.33 "Hg

Humidity: 100%

Dew point: 36 °F

Location of LublinLocation

Historic Weather in Lublin — Graph

°F

Lublin Temperature Yesterday

Maximum temperature yesterday: 41 °F (at 2:00 PM)
Minimum temperature yesterday: 36 °F (at 4:00 AM)
Average temperature yesterday: 38 °F

High & Low Weather Summary for the Past Weeks

 TemperatureHumidityPressure
High54 °F (Feb 9, 1:00 PM)100% (Feb 1, 8:30 AM)30.27 "Hg (Feb 1, 8:30 AM)
Low28 °F (Feb 5, 9:30 PM)50% (Feb 7, 1:30 PM)29.15 "Hg (Feb 10, 5:30 PM)
Average40 °F78%29.82 "Hg
* Reported Jan 30 2:00 AM — Feb 14 2:00 AM, Lublin, Weather by CustomWeather, © 2016

Note: Actual official high and low records may vary slightly from our data, if they occured in-between our weather recording intervals... More about our weather records

Advertising

Lublin Weather History for the Previous 24 Hours

 ConditionsComfort  
Time TempWeatherWind HumidityBarometerVisibility
2:00 AM
Sun, Feb 14
36 °FFog.2 mph100%29.33 "Hg1 mi
1:30 AM36 °FFog.3 mph100%29.33 "Hg1 mi
1:00 AM36 °FFog.2 mph100%29.36 "Hg1 mi
12:30 AM36 °FFog.3 mph100%29.36 "Hg1 mi
12:00 AM36 °FFog.5 mph100%29.36 "Hg1 mi
11:30 PM
Sat, Feb 13
36 °FFog.5 mph100%29.36 "Hg1 mi
10:30 PM36 °FLight rain. Fog.6 mph100%29.36 "Hg2 mi
10:00 PM37 °FLight rain. Fog.6 mph93%29.36 "Hg3 mi
9:30 PM37 °FLight rain. Partly cloudy.6 mph93%29.36 "Hg4 mi
9:00 PM37 °FLight rain. Passing clouds.7 mph93%29.36 "Hg4 mi
8:30 PM37 °FLight rain. Passing clouds.7 mph93%29.39 "Hg4 mi
8:00 PM37 °FLight rain. Passing clouds.7 mph93%29.39 "HgN/A
7:30 PM37 °FLight rain. Passing clouds.7 mph93%29.39 "HgN/A
7:00 PM37 °FLight rain. Passing clouds.10 mph93%29.39 "HgN/A
6:30 PM39 °FLight rain. Passing clouds.10 mph81%29.39 "HgN/A
6:00 PM39 °FLight rain. Passing clouds.12 mph81%29.39 "HgN/A
5:30 PM39 °FLight rain. Passing clouds.14 mph81%29.39 "HgN/A
5:00 PM39 °FClear.12 mph81%29.39 "Hg10 mi
4:30 PM39 °FSunny.13 mph81%29.39 "Hg10 mi
4:00 PM39 °FSunny.10 mph81%29.39 "Hg10 mi
3:30 PM39 °FPassing clouds.14 mph81%29.42 "HgN/A
3:00 PM41 °FSunny.10 mph81%29.42 "Hg10 mi
2:30 PM41 °FPassing clouds.7 mph81%29.42 "HgN/A
2:00 PM41 °FLight rain. Scattered clouds.12 mph81%29.42 "HgN/A
1:30 PM39 °FLight rain. Scattered clouds.15 mph87%29.45 "HgN/A
1:00 PM39 °FLight rain. Scattered clouds.13 mph81%29.45 "HgN/A
12:30 PM39 °FSunny.13 mph81%29.45 "Hg10 mi
12:00 PM39 °FSunny.12 mph87%29.47 "Hg10 mi
11:30 AM39 °FSunny.9 mph81%29.47 "Hg10 mi
11:00 AM37 °FScattered clouds.9 mph87%29.47 "HgN/A
10:30 AM37 °FPartly sunny.7 mph87%29.50 "HgN/A
10:00 AM36 °FPartly sunny.10 mph93%29.50 "HgN/A
9:30 AM36 °FPassing clouds.9 mph87%29.50 "HgN/A
9:00 AM36 °FScattered clouds.8 mph93%29.50 "HgN/A
8:30 AM36 °FLight rain. Passing clouds.10 mph93%29.50 "HgN/A
8:00 AM36 °FLight rain. Scattered clouds.12 mph93%29.50 "HgN/A
7:30 AM36 °FLight rain. Partly sunny.8 mph93%29.53 "HgN/A
7:00 AM36 °FLight rain. More clouds than sun.6 mph93%29.53 "HgN/A
6:30 AM36 °FLight rain. Passing clouds.7 mph93%29.53 "HgN/A
6:00 AM37 °FLight rain. Passing clouds.10 mph87%29.53 "HgN/A
5:00 AM36 °FPassing clouds.8 mph81%29.56 "HgN/A
4:30 AM36 °FPassing clouds.8 mph81%29.56 "HgN/A
4:00 AM36 °FPassing clouds.9 mph81%29.56 "HgN/A
3:30 AM37 °FPassing clouds.8 mph70%29.56 "HgN/A
3:00 AM37 °FOvercast.8 mph75%29.59 "HgN/A
Weather by CustomWeather, © 2016

See weather overviewHow to use our weather pages